sat.trackr.live / text

‹ back to catalog

STARLINK-2076

NORAD 47362 · 2021-005P

PAYLOAD ACTIVE UNKNOWN

§ Identity

Operator
Country
US
Launch date
2021-01-20
Launch site
AFETR
Launch vehicle
Mass (kg)
RCS (m²)

Purposes: comms

External: N2YO · Heavens-Above · Gunter

§ Orbital elements

Epoch: 2026-09-13T01:25:46.132608Z

Period
93.28 min
Inclination
53.1543°
Eccentricity
0.0001390
Mean motion
15.43778738 rev/d
Perigee alt
434.0 km
Apogee alt
435.9 km
Semi-major
6,813.1 km
B*
8.8875e-4
RAAN
264.5294°
Arg perigee
23.4488°
Mean anomaly
336.6582°
Rev number
31,182

§ Raw data

STARLINK-20761 47362U 21005P   26256.05956172  .00040636  00000+0  88875-3 0  99932 47362  53.1543 264.5294 0001390  23.4488 336.6582 15.43778738311820

JSON: /api/v1/satellites/47362 · /tle

For live sub-satellite position, see the globe view (requires WebGL).

§ Visibility from observer

Set your observer location to see the next 7 days of passes ≥ 10°. The values pass through the URL so the page stays shareable.

No JS? Fill the form by hand. The geolocation button needs JavaScript.